Regional Weather Roundup
Issued by NWS Bismarck, ND

Home | Current Version | Previous Version | Text Only | Print | Product List | Glossary On
Versions: 1 2 3 4 5 6 7 8 9 10 11 12 13 14 15 16 17 18 19 20 21 22 23 24 25 26 27 28 29 30 31 32 33 34 35 36 37 38 39 40 41 42 43 44 45 46 47 48 49 50
000
ASUS43 KBIS 271910
RWRBIS

NWR BROADCAST TEXT
NATIONAL WEATHER SERVICE BISMARCK ND
200 PM CDT THU APR 27 2017

NOTE: "FAIR" INDICATES FEW OR NO CLOUDS BELOW 12,000 FEET WITH NO
SIGNIFICANT WEATHER AND/OR OBSTRUCTIONS TO VISIBILITY.


CITY           SKY/WX    TMP DP  RH WIND       PRES   REMARKS
WILLISTON      FAIR      50  20  30 E9        29.74S
MINOT          FAIR      49  20  31 NE12      29.74F
MINOT AFB      FAIR      47  18  31 NE13G18   29.73F
BISMARCK       FAIR      50  25  37 N10G18    29.72F
DICKINSON      FAIR      45  23  42 E9        29.68F
GARRISON         N/A     45  22  40 E9        29.72
HETTINGER ARPT FAIR      45  27  49 E9        29.69F
JAMESTOWN      FAIR      45  30  55 N16G24    29.68S
HAZEN          FAIR      46  21  36 VRB6G15   29.74F
LINTON           N/A     46  28  49 NE13      29.71F
MANDAN         FAIR      45  23  42 CALM      29.71F
STANLEY        FAIR      45  14  29 E8G17     29.76F
TIOGA          FAIR      45  10  24 NE14G20   29.75F
WATFORD CITY   FAIR      46  18  31 E12       29.72S
$$

CITY           SKY/WX    TMP DP  RH WIND       PRES   REMARKS
GRAND FORKS    PTSUNNY   40  28  62 N15       29.68F
GRAND FORKS AF PTSUNNY   40  28  62 NE14      29.68F
DEVILS LAKE    FAIR      45  26  47 N20G26    29.70F
FARGO          PTSUNNY   33  24  69 N18       29.69F
CAVALIER       CLOUDY    45  27  49 N20G32    29.68S
GRAFTON        MOCLDY    41  28  60 N17       29.69F
GWINNER        MOCLDY    37  28  70 MISG      29.70F
LANGDON        FAIR      46  27  46 N23G29    29.69S
ROLLA          FAIR      45  25  45 N20       29.73S
$$

CITY           SKY/WX    TMP DP  RH WIND       PRES   REMARKS
ABERDEEN       FAIR      39  24  55 N9        29.72F
MOBRIDGE       FAIR      51  26  37 VRB3      29.67F
BUFFALO          N/A     45  28  51 E9G18     29.59F
RAPID CITY     PTSUNNY   46  32  58 E10       29.63F
GLASGOW        PTSUNNY   53  26  35 E12G17    29.68S
SIDNEY         FAIR      50  23  34 E12G17    29.71F
WOLF POINT     FAIR      52  27  38 E12G20    29.71S
GLENDIVE       FAIR      50  27  40 NE12      29.68F
MILES CITY     FAIR      54  28  36 VRB6      29.62F
BAKER          FAIR      46  28  49 SE10G22   29.66F
$$

CITY           SKY/WX    TMP DP  RH WIND       PRES   REMARKS
BILLINGS       CLOUDY    46  40  79 N14       29.62S
GREAT FALLS    CLOUDY    44  36  73 W10       29.68S
REGINA         MOSUNNY   48  10  21 VRB14     29.78S
ESTEVAN        MOSUNNY   45  10  24 E7G18     29.77S
$$





USA.gov is the U.S. government's official web portal to all federal, state and local government web resources and services.